sat.trackr.live / text

‹ back to catalog

DIRECTV 11

NORAD 32729 · 2008-013A

PAYLOAD ACTIVE UNKNOWN

§ Identity

Operator
Country
US
Launch date
2008-03-19
Launch site
SEAL
Launch vehicle
Mass (kg)
RCS (m²)
6.32

Purposes: comms

External: N2YO · Heavens-Above · Gunter

§ Orbital elements

Epoch: 2026-05-25T03:16:18.028128Z

Period
1,436.08 min
Inclination
0.0033°
Eccentricity
0.0000403
Mean motion
1.00272957 rev/d
Perigee alt
35,784.6 km
Apogee alt
35,788.0 km
Semi-major
42,164.4 km
B*
0.0000e+0
RAAN
247.5140°
Arg perigee
110.6154°
Mean anomaly
194.4834°
Rev number
4,536

§ Raw data

DIRECTV 111 32729U 08013A   26145.13631977 -.00000128  00000+0  00000+0 0  99902 32729   0.0033 247.5140 0000403 110.6154 194.4834  1.00272957 45363

JSON: /api/v1/satellites/32729 · /tle

For live sub-satellite position, see the globe view (requires WebGL).

§ Visibility from observer

Set your observer location to see the next 7 days of passes ≥ 10°. The values pass through the URL so the page stays shareable.

No JS? Fill the form by hand. The geolocation button needs JavaScript.